Find Local Weather

World > North America > United States > Ohio

Solon, Ohio Regional Weather

Lat: 41.39N, Lon: 81.44W
Wx Zone: OHZ011
Warning FLW WEATHER ALERT - (More Info. Click Here) Warning
Feedback

Solon, OH Regional Weather

Expires:201904231900;;374356
ASUS41 KCLE 231812
RWRCLE
OHIO REGIONAL WEATHER ROUNDUP
NATIONAL WEATHER SERVICE WILMINGTON, OH
200 PM EDT TUE APR 23 2019

NOTE: "FAIR" INDICATES FEW OR NO CLOUDS BELOW 12,000 FEET WITH NO
SIGNIFICANT WEATHER AND/OR OBSTRUCTIONS TO VISIBILITY.


OHZ009>014-019>023-028>033-038-089-231900-
   NORTHEAST OHIO
  
CITY           SKY/WX    TMP DP  RH WIND       PRES   REMARKS
CLE-HOPKINS    PTSUNNY   71  56  58 SW23G35   29.84S                  
CLE-LAKEFRONT  CLOUDY    65  52  62 W16       29.80S                  
CUY CO. ARPT   CLOUDY    68  55  64 W15G24    29.81S                  
LORAIN-ELYRIA  PTSUNNY   71  52  50 W20       29.84S                  
ASHTABULA      PTSUNNY   69  53  56 SW12G22   29.80F                  
AKRON-CANTON   CLOUDY    70  53  54 W15G24    29.86F                  
WOOSTER        PTSUNNY   69  56  62 W18G25    29.87S                  
MANSFIELD      CLOUDY    68  56  65 W17G25    29.88S                  
YOUNGSTOWN     CLOUDY    68  53  58 S9        29.83F                  
$$
 

SKY/WX - Weather  TMP - Temperature  DP - Dew Point  RH - Relative Humidity
WIND - Wind Direction/Speed PRES - Barometric Pressure VSB - Visibility
WCI - Wind Chill Index E13G22 Wind - East Wind 13 mph/Gusts of 22 mph